Regional Weather Roundup
Issued by NWS

Home | Current Version | Previous Version | Text Only | Print | Product List | Glossary On
Versions: 1 2 3 4 5 6 7 8 9 10 11 12 13 14 15 16 17 18 19 20 21 22 23 24 25 26 27 28 29 30 31 32 33 34 35 36 37 38 39 40 41 42 43 44 45 46 47 48 49 50
000
ASUS42 KTBW 020210
RWRFL
FLORIDA REGIONAL WEATHER ROUNDUP
NATIONAL WEATHER SERVICE TAMPA BAY RUSKIN FL
1000 PM EDT MON SEP 01 2014

NOTE: "FAIR" INDICATES FEW OR NO CLOUDS BELOW 12,000 FEET WITH NO
SIGNIFICANT WEATHER AND/OR OBSTRUCTIONS TO VISIBILITY.


FLZ001>010-012>015-112-114-115-020300-
PANHANDLE FLORIDA

CITY           SKY/WX    TMP DP  RH WIND       PRES   REMARKS
PENSACOLA      MOCLDY    81  74  79 S8        30.08R
PENSACOLA NAS  MOCLDY    84  76  76 S9        30.07R
MILTON NAS     MOCLDY    80  74  81 S7        30.08R
CRESTVIEW      PTCLDY    80  73  79 S3        30.11R
DUKE FIELD     FAIR      82  76  81 SW5       30.09R
VALPARAISO     MOCLDY    85  75  72 SW2       30.09R
MARY ESTHER    PTCLDY    85  71  64 SW5       30.08R
TRI COUNTY     FAIR      75  73  93 CALM      30.10R
PANAMA CITY    FAIR      79  75  87 CALM      30.09R
TYNDALL AFB    MOCLDY    82  77  83 SW5       30.10R
APALACHICOLA   PTCLDY    79  75  87 CALM      30.09R

STATION/POSITION SKY/WX   TEMP    WIND        PRES    WAVE   SWELL
                          AIR SEA DIR/SP/G            HT/PER HT/PER
                          (F)     (DEG/KT/KT) (MB)    (FT/S) (FT/S)
30.1N   87.6W              85 86  160/  8/ 10 1018.3R   3/ 8   3/ 8
29.2N   88.2W              84 85  170/ 10/ 12 1017.7
28.8N   86.0W              84 86  160/  4/  6 1018.1    3/ 5   3/ 5
PANAMA CITY BEAC           85 87  210/  6/  8 1018.8R
CAPE SAN BLAS    NOT AVBL
TOWER C                    84     240/  2/  3 1018.8R
28.5N   84.5W              85 86  270/  2/  2 1018.4R   2/ 6   2/ 6

$$
FLZ011-016>038-118-127-128-134-139-239-020300-
NORTH FLORIDA

CITY           SKY/WX    TMP DP  RH WIND       PRES   REMARKS
MARIANNA       CLEAR     80  74  81 CALM      30.08R
TALLAHASSEE    PTCLDY    80  75  84 CALM      30.09R
PERRY          CLEAR     79  73  83 CALM      30.09R
CROSS CITY       N/A     81  76  84 NW3       30.08R
LAKE CITY      FAIR      79  73  83 W3        30.11R
GAINESVILLE    PTCLDY    76  74  93 CALM      30.09R
MAYPORT NAS    CLEAR     83  74  74 S9        30.10R
JACKSONVILLE   PTCLDY    79  73  82 S6        30.10R
JAX NAS        PTCLDY    86  73  65 S7        30.10R
JAX CRAIG      CLEAR     81  74  79 S3        30.10R
JAX CECIL      CLEAR     77  73  88 CALM      30.10R
FERNANDINA BEA FAIR      82  73  74 S6        30.09R
ST AUGUSTINE   CLEAR     82  75  79 S7        30.10R

STATION/POSITION SKY/WX   TEMP    WIND        PRES    WAVE   SWELL
                          AIR SEA DIR/SP/G            HT/PER HT/PER
                          (F)     (DEG/KT/KT) (MB)    (FT/S) (FT/S)
SHELL POINT                85     240/  8/ 11   N/A
KEATON BEACH               85     270/  9/ 10 1018.9R
CEDAR KEY                  85     310/  2/  3 1018.5R
FERNANDINA                 83 89  150/  5/  6 1018.5R
30.7N   81.3W                 85                N/A     2/ 9
MAYPORT                    83 86  160/  4/  7   N/A
31.4N   80.9W              84 85  160/ 10/ 12 1019.0R   2/ 9   2/ 9
ST AUGUSTINE               83     160/ 13/ 14 1019.8R

$$
FLZ040-043>046-052-053-057-058-063-144-020300-
INTERIOR CENTRAL FLORIDA

CITY           SKY/WX    TMP DP  RH WIND       PRES   REMARKS
OCALA          MOCLDY    81  72  74 S12       30.11R
LEESBURG       MOCLDY    82  75  79 S5        30.11R
SANFORD        CLEAR     81  74  79 SE6       30.10R
ORLANDO EXEC   CLEAR     82  73  74 E7        30.10R
ORLANDO INTL   PTCLDY    82  74  76 E6        30.10R
KISSIMMEE      CLEAR     82  75  78 E5        30.09R
WINTER HAVEN   CLEAR     82  73  74 E5        30.10R
LAKELAND       MOCLDY    81  72  74 W5        30.09R
BARTOW         FAIR      79  73  83 CALM      30.10R
OKEECHOBEE       N/A     77  73  88 MISG      30.09R

$$
FLZ041-047-054-059-064-141-147-020300-
EAST CENTRAL FLORIDA

CITY           SKY/WX    TMP DP  RH WIND       PRES   REMARKS
DAYTONA BEACH  MOCLDY    81  74  79 CALM      30.10R
DELAND         CLEAR     81  73  78 SE5       30.11R
NEW SMYRNA BEA CLEAR     82  75  78 SE6       30.10R
JFK SPACE CTR  CLEAR     80  74  83 SE2       30.10R
CAPE CANAVERAL CLEAR     80  74  81 SE2       30.09R
PATRICK AFB    CLEAR     83  75  74 SE9       30.09R
MELBOURNE      CLEAR     84  74  71 E9        30.09R
VERO BEACH     CLEAR     79  72  79 E6        30.08R
FT PIERCE      PTCLDY    84  72  67 E9        30.08R
STUART         CLEAR     81  72  74 E8        30.10R

STATION/POSITION SKY/WX   TEMP    WIND        PRES    WAVE   SWELL
                          AIR SEA DIR/SP/G            HT/PER HT/PER
                          (F)     (DEG/KT/KT) (MB)    (FT/S) (FT/S)
28.5N   80.2W              84 87  130/  8/ 12 1019.0R
28.9N   78.5W              83 85  110/  6/  8 1020.0R   2/ 9   2/ 9
TRIDENT PIER               83 87  120/  4/  7 1018.6R
28.4N   80.5W                 85                N/A     2/ 8
27.6N   80.2W                 86                N/A     2/ 9

$$
FLZ050-056-061-142-242-148-248-149-249-151-251-155-255-
160-260-020300-
WEST CENTRAL FLORIDA

CITY           SKY/WX    TMP DP  RH WIND       PRES   REMARKS
CRYSTAL RIVER  CLOUDY    75  72  88 E5        30.13R THUNDER
INVERNESS      TSTM      73  72  94 SW7       30.13R
BROOKSVILLE    CLOUDY    78  72  81 N8        30.11S
ZEPHYRHILLS    FAIR      79  72  78 NW6       30.11R
CLEARWATER     CLOUDY    81  72  74 NE3       30.09R THUNDER
TAMPA INTL     MOCLDY    77  72  84 VRB3      30.09R
TAMPA EXEC     MOCLDY    79  72  78 CALM      30.10R
PLANT CITY     MOCLDY    82  75  78 NW6       30.12R
MACDILL AFB    MOCLDY    76  76  98 SW3       30.09R
ST PETERSBURG  MOCLDY    84  72  67 N7        30.07R
SARASOTA         N/A     83  74  74 N3        30.08R
VENICE           N/A    N/A N/A N/A MISG        N/A

STATION/POSITION SKY/WX   TEMP    WIND        PRES    WAVE   SWELL
                          AIR SEA DIR/SP/G            HT/PER HT/PER
                          (F)     (DEG/KT/KT) (MB)    (FT/S) (FT/S)
CEDAR KEY                  85     310/  2/  3 1018.5R
28.5N   84.5W              85 86  270/  2/  2 1018.4R   2/ 6   2/ 6
27.3N   84.3W                 87                N/A     3/ 7
CLEARWATER BEACH           81 89   50/  6/  9 1018.2R
MIDDLE TAMPA BAY           81     130/  3/  5 1018.8R
VENICE                     77 89   70/  5/  6 1018.6R

$$
FLZ066-069-070-075>078-162-262-165-265-020300-
SOUTHWEST FLORIDA AND KEYS

CITY           SKY/WX    TMP DP  RH WIND       PRES   REMARKS
PUNTA GORDA    CLEAR     78  75  90 CALM      30.10R
FT MYERS       CLEAR     78  72  81 CALM      30.08R
SOUTHWEST INTL CLEAR     78  71  79 CALM      30.08R
NAPLES         PTCLDY    78  76  93 NE3       30.07R
MARCO ISLAND   CLEAR     77  75  94 N3        30.07R
MARATHON       PTCLDY    85  76  74 E7        30.05S
KEY WEST NAS   CLEAR     85  74  69 E12       30.04S
KEY WEST INTL  CLEAR     85  75  72 E8        30.04F

STATION/POSITION SKY/WX   TEMP    WIND        PRES    WAVE   SWELL
                          AIR SEA DIR/SP/G            HT/PER HT/PER
                          (F)     (DEG/KT/KT) (MB)    (FT/S) (FT/S)
VENICE                     77 89   70/  5/  6 1018.6R
NAPLES                     78      60/  2/  3 1018.9R
DRY TORTUGAS               86     100/  9/ 11 1017.5R
NW FL BAY                  87     110/ 10/ 12 1017.1R
SAND KEY                   85     100/ 13/ 14 1017.1R
SOMBRERO KEY               85     100/ 12/ 14 1018.2R
LONG KEY                   85 87  120/ 11/ 14 1018.3R
MOLASSES REEF              85 87  100/ 11/ 13 1017.9R

$$
FLZ067-068-071>074-168-172>174-020300-
SOUTHEAST FLORIDA

CITY           SKY/WX    TMP DP  RH WIND       PRES   REMARKS
W PALM BEACH   PTCLDY    84  72  67 E9        30.07R
FT LAUDER-EXEC PTCLDY    84  75  74 E9        30.07R
FT LAUDERDALE  PTCLDY    85  74  69 E8        30.07R
POMPANO BEACH  PTCLDY    85  72  65 E9        30.07R
PEMBROKE PINES PTCLDY    84  73  69 E6        30.09R
OPA LOCKA      CLEAR     83  73  72 E6        30.08R
MIAMI          PTCLDY    84  73  69 E9        30.07R
WEST KENDALL   CLEAR     82  74  76 E6        30.07R
HOMESTEAD      CLEAR     83  73  72 E6        30.07R

STATION/POSITION SKY/WX   TEMP    WIND        PRES    WAVE   SWELL
                          AIR SEA DIR/SP/G            HT/PER HT/PER
                          (F)     (DEG/KT/KT) (MB)    (FT/S) (FT/S)
PORT EVERGLADES            85      90/  7/ 10 1018.0
VIRGINIA KEY               84 87   90/  8/ 11   N/A
LAKE WORTH                 84 87  100/  9/ 11 1018.2R
FOWEY ROCKS                84 87   90/ 11/ 12 1018.6R
SETTLEMENT POINT           82     120/  9/ 10 1019.7R

$$



USA.gov is the U.S. government's official web portal to all federal, state and local government web resources and services.